Location: Ojai
(34.4480°N, 119.2420°W)
Time: 00:56:56
(UTC-08:00)

N. Korean satellite - Visible Passes

Search period start: 11 December 2018 00:00
Search period end: 21 December 2018 00:00
Orbit: 456 x 511 km, 97.2° (Epoch: 10 December)

Date Brightness Start Highest point End Pass type
(mag) Time Alt. Az. Time Alt. Az. Time Alt. Az.
11 Dec 8.8 05:40:13 10° NE 05:43:22 29° E 05:46:33 10° SSE visible
11 Dec 7.2 17:45:30 10° S 17:48:53 55° W 17:52:16 10° NNW visible
12 Dec 9.9 05:16:45 10° ENE 05:18:42 14° E 05:20:40 10° SE visible
12 Dec 6.5 17:20:58 10° SSE 17:24:20 58° ENE 17:27:43 10° N visible
13 Dec 6.6 06:24:09 10° N 06:27:40 59° WNW 06:31:15 10° SSW visible
13 Dec 9.9 18:31:43 10° WSW 18:33:19 13° W 18:34:55 10° WNW visible
14 Dec 7.3 05:59:35 10° NNE 06:03:08 58° E 06:06:43 10° S visible
14 Dec 8.7 18:05:40 10° SSW 18:08:38 27° W 18:11:37 10° NW visible
15 Dec 9.0 05:35:28 10° NE 05:38:32 26° E 05:41:36 10° SSE visible
15 Dec 6.9 17:40:37 10° S 17:44:01 66° W 17:47:26 10° NNW visible
16 Dec 10.0 05:12:16 10° ENE 05:13:50 12° E 05:15:25 10° ESE visible
16 Dec 6.6 17:16:10 10° SSE 17:19:28 49° ENE 17:22:47 10° N visible
17 Dec 6.5 06:19:14 10° N 06:22:50 69° WNW 06:26:28 10° SSW visible
17 Dec 9.8 18:26:25 10° SW 18:28:24 15° W 18:30:24 10° WNW visible
18 Dec 7.6 05:54:44 10° NNE 05:58:16 50° E 06:01:50 10° S visible
18 Dec 8.4 18:00:38 10° SSW 18:03:43 32° W 18:06:49 10° NNW visible
19 Dec 9.3 05:30:42 10° NE 05:33:38 23° E 05:36:36 10° SSE visible
19 Dec 6.6 17:35:41 10° S 17:39:06 79° W 17:42:33 10° NNW visible
20 Dec 10.2 05:07:56 10° ENE 05:08:56 11° E 05:09:55 10° ESE visible
